This is the latest recevied weather packets stored in our database for station/object KC8SWY-15. If no packets are shown the sender has not sent any weather packets the latest 1 day(s).
| Time | Temp. | Humidity | Pressure | Rain* | Wind** | Luminosity | Snow |
|---|---|---|---|---|---|---|---|
| 1778066665 | 1.11° C | 93% | 1012.6 hPa | 0 mm | - | - | - |
| 1778066158 | 0.56° C | 92% | 1012.4 hPa | 0 mm | - | - | - |
| 1778066065 | 0.56° C | 92% | 1012.4 hPa | 0 mm | - | - | - |
| 1778065466 | 0.56° C | 92% | 1012.4 hPa | 0 mm | - | - | - |
| 1778064865 | 0.56° C | 92% | 1012.1 hPa | 0 mm | - | - | - |
| 1778058866 | 1.67° C | 87% | 1011.5 hPa | 0 mm | - | - | - |
| 1778058566 | 1.67° C | 87% | 1011.4 hPa | 0 mm | - | - | - |
| 1778058266 | 1.67° C | 87% | 1011.4 hPa | 0 mm | - | - | - |
| 1778057966 | 2.22° C | 86% | 1011.4 hPa | 0 mm | - | - | - |
| 1778057666 | 2.22° C | 86% | 1011.3 hPa | 0 mm | - | - | - |
| 1778057366 | 2.22° C | 85% | 1011.3 hPa | 0 mm | - | - | - |
| 1778057066 | 2.22° C | 84% | 1011.2 hPa | 0 mm | - | - | - |
| 1778056766 | 2.22° C | 83% | 1011.1 hPa | 0 mm | - | - | - |
| 1778056466 | 2.78° C | 83% | 1011 hPa | 0 mm | - | - | - |
| 1778056166 | 2.78° C | 83% | 1010.9 hPa | 0 mm | - | - | - |
| 1778055866 | 2.78° C | 82% | 1010.8 hPa | 0 mm | - | - | - |
| 1778055566 | 3.33° C | 81% | 1010.9 hPa | 0 mm | - | - | - |
| 1778055266 | 3.33° C | 81% | 1010.8 hPa | 0 mm | - | - | - |
| 1778054966 | 3.33° C | 80% | 1010.9 hPa | 0 mm | - | - | - |
| 1778054666 | 3.89° C | 79% | 1010.9 hPa | 0 mm | - | - | - |
| 1778054366 | 3.89° C | 79% | 1011.1 hPa | 0 mm | - | - | - |
| 1778054066 | 4.44° C | 78% | 1011 hPa | 0 mm | - | - | - |
| 1778053766 | 4.44° C | 76% | 1010.9 hPa | 0 mm | - | - | - |
| 1778053466 | 4.44° C | 75% | 1011 hPa | 0 mm | - | - | - |
| 1778053166 | 5° C | 76% | 1011.1 hPa | 0 mm | - | - | - |
* Rain latest hour (hover to see other rain measurements)
** Current wind speed in m/s (hover to see current wind gust speed)